DLH3KE EDDF-EDDB

Flight info

Callsign DLH3KE
Flight time 0h 41m
Altitude 31000
Route TOBAK2D/07C TOBAK N858 SWALM T201 TAMEB T278 KLF KLF1L
Aircraft A321/M-SDE2E3FGIJ1LORWXYZ/HB1

Departure

Time 2026-05-07 19:50
Airport Frankfurt Main Airport (EDDF)

Arrival

Time 2026-05-07 20:32
Airport Berlin Brandenburg Airport (EDDB)
Time Latitude Longitude Altitude Speed Heading
2026-05-07 19:18 50.04803 8.56913 360 ft 0 kts 295°
2026-05-07 19:18 50.04803 8.56912 360 ft 0 kts 295°
2026-05-07 19:39 50.04799 8.56928 362 ft 4 kts 293°
2026-05-07 19:39 50.04788 8.56966 360 ft 3 kts 295°
2026-05-07 19:39 50.04780 8.56996 361 ft 4 kts 271°
2026-05-07 19:40 50.04788 8.57028 361 ft 4 kts 213°
2026-05-07 19:40 50.04796 8.57036 361 ft 3 kts 204°
2026-05-07 19:40 50.04772 8.57019 363 ft 4 kts 204°
2026-05-07 19:40 50.04747 8.57002 356 ft 4 kts 204°
2026-05-07 19:41 50.04723 8.56984 361 ft 4 kts 205°
2026-05-07 19:41 50.04698 8.56967 356 ft 4 kts 205°
2026-05-07 19:41 50.04674 8.56949 359 ft 4 kts 205°
2026-05-07 19:41 50.04652 8.56933 363 ft 1 kts 205°
2026-05-07 19:42 50.04629 8.56920 359 ft 4 kts 197°
2026-05-07 19:42 50.04603 8.56910 356 ft 4 kts 194°
2026-05-07 19:42 50.04577 8.56900 361 ft 4 kts 193°
2026-05-07 19:42 50.04551 8.56891 362 ft 4 kts 193°
2026-05-07 19:43 50.04542 8.56887 359 ft 1 kts 193°
2026-05-07 19:46 50.04529 8.56882 359 ft 5 kts 193°
2026-05-07 19:46 50.04482 8.56864 361 ft 9 kts 194°
2026-05-07 19:46 50.04437 8.56768 361 ft 14 kts 250°
2026-05-07 19:46 50.04402 8.56618 361 ft 14 kts 249°
2026-05-07 19:47 50.04328 8.56586 363 ft 13 kts 160°
2026-05-07 19:47 50.04235 8.56631 356 ft 15 kts 183°
2026-05-07 19:47 50.04180 8.56501 362 ft 16 kts 249°
2026-05-07 19:47 50.04137 8.56321 356 ft 19 kts 250°
2026-05-07 19:48 50.04088 8.56117 357 ft 20 kts 250°
2026-05-07 19:48 50.04040 8.55913 350 ft 21 kts 249°
2026-05-07 19:48 50.03986 8.55689 352 ft 23 kts 249°
2026-05-07 19:48 50.03941 8.55509 351 ft 13 kts 242°
2026-05-07 19:49 50.03869 8.55499 355 ft 12 kts 159°
2026-05-07 19:49 50.03783 8.55550 353 ft 10 kts 159°
2026-05-07 19:49 50.03778 8.55616 356 ft 5 kts 72°
2026-05-07 19:49 50.03778 8.55618 356 ft 0 kts 72°
2026-05-07 19:50 50.03780 8.55626 358 ft 4 kts 72°
2026-05-07 19:50 50.03876 8.56031 355 ft 80 kts 69°
2026-05-07 19:50 50.04154 8.57195 383 ft 144 kts 69°
2026-05-07 19:50 50.04505 8.58669 1109 ft 143 kts 69°
2026-05-07 19:51 50.04838 8.60117 1869 ft 145 kts 70°
2026-05-07 19:51 50.05190 8.61701 2276 ft 164 kts 70°
2026-05-07 19:51 50.05577 8.63472 2714 ft 181 kts 70°
2026-05-07 19:51 50.06002 8.65388 3192 ft 193 kts 69°
2026-05-07 19:52 50.06459 8.67423 3615 ft 208 kts 69°
2026-05-07 19:52 50.06978 8.69635 3968 ft 227 kts 64°
2026-05-07 19:52 50.07840 8.71776 4540 ft 241 kts 55°
2026-05-07 19:52 50.08795 8.74069 4987 ft 263 kts 56°
2026-05-07 19:53 50.09808 8.76529 5609 ft 274 kts 56°
2026-05-07 19:53 50.10809 8.79052 6531 ft 275 kts 58°
2026-05-07 19:53 50.11774 8.81651 7305 ft 279 kts 59°
2026-05-07 19:53 50.12740 8.84293 8108 ft 283 kts 59°
2026-05-07 19:54 50.13707 8.86931 8895 ft 286 kts 59°
2026-05-07 19:54 50.14718 8.89674 9703 ft 290 kts 59°
2026-05-07 19:54 50.15720 8.92384 10361 ft 298 kts 59°
2026-05-07 19:54 50.16813 8.95325 10567 ft 321 kts 59°
2026-05-07 19:55 50.17962 8.98413 10939 ft 335 kts 59°
2026-05-07 19:55 50.19139 9.01587 11549 ft 340 kts 59°
2026-05-07 19:55 50.20315 9.04763 12199 ft 345 kts 59°
2026-05-07 19:55 50.21524 9.08015 12826 ft 350 kts 59°
2026-05-07 19:56 50.22752 9.11313 13022 ft 351 kts 59°
2026-05-07 19:56 50.23981 9.14624 13160 ft 354 kts 59°
2026-05-07 19:56 50.25214 9.17958 13875 ft 356 kts 59°
2026-05-07 19:56 50.26460 9.21331 14506 ft 360 kts 59°
2026-05-07 19:57 50.27715 9.24736 15117 ft 363 kts 59°
2026-05-07 19:57 50.28981 9.28173 15741 ft 366 kts 59°
2026-05-07 19:57 50.30260 9.31648 16395 ft 369 kts 59°
2026-05-07 19:57 50.31555 9.35171 17018 ft 372 kts 59°
2026-05-07 19:58 50.32830 9.38649 17626 ft 375 kts 59°
2026-05-07 19:58 50.34132 9.42206 18230 ft 378 kts 59°
2026-05-07 19:58 50.35444 9.45791 18760 ft 381 kts 59°
2026-05-07 19:58 50.36763 9.49407 19278 ft 384 kts 59°
2026-05-07 19:59 50.38096 9.53056 19800 ft 387 kts 59°
2026-05-07 19:59 50.39435 9.56728 20331 ft 390 kts 59°
2026-05-07 19:59 50.40781 9.60430 20847 ft 392 kts 59°
2026-05-07 19:59 50.42133 9.64164 21355 ft 395 kts 59°
2026-05-07 20:00 50.43494 9.67931 21847 ft 398 kts 59°
2026-05-07 20:00 50.44863 9.71720 22349 ft 401 kts 59°
2026-05-07 20:00 50.46207 9.75442 22832 ft 404 kts 59°
2026-05-07 20:00 50.47594 9.79288 23326 ft 406 kts 59°
2026-05-07 20:01 50.48992 9.83167 23771 ft 409 kts 60°
2026-05-07 20:01 50.50397 9.87062 24171 ft 412 kts 59°
2026-05-07 20:01 50.51809 9.90985 24583 ft 414 kts 60°
2026-05-07 20:01 50.53227 9.94935 25001 ft 416 kts 60°
2026-05-07 20:02 50.54647 9.98904 25418 ft 418 kts 60°
2026-05-07 20:02 50.55590 10.01546 25694 ft 419 kts 60°
2026-05-07 20:02 50.57504 10.06906 26255 ft 422 kts 60°
2026-05-07 20:02 50.58944 10.10938 26665 ft 424 kts 60°
2026-05-07 20:03 50.60387 10.14993 27069 ft 426 kts 60°
2026-05-07 20:03 50.61842 10.19085 27307 ft 432 kts 60°
2026-05-07 20:03 50.63321 10.23248 27449 ft 440 kts 60°
2026-05-07 20:03 50.64873 10.27452 27607 ft 446 kts 55°
2026-05-07 20:04 50.66625 10.31520 27908 ft 450 kts 54°
2026-05-07 20:04 50.68415 10.35568 28273 ft 452 kts 54°
2026-05-07 20:04 50.70240 10.39621 28622 ft 454 kts 54°
2026-05-07 20:04 50.72080 10.43684 28972 ft 456 kts 54°
2026-05-07 20:05 50.73924 10.47769 29288 ft 458 kts 54°
2026-05-07 20:05 50.75763 10.51877 29597 ft 459 kts 54°
2026-05-07 20:05 50.77604 10.56018 29896 ft 461 kts 54°
2026-05-07 20:05 50.79444 10.60176 30167 ft 463 kts 54°
2026-05-07 20:06 50.81287 10.64356 30388 ft 464 kts 54°
2026-05-07 20:06 50.82508 10.67134 30522 ft 466 kts 54°
2026-05-07 20:06 50.84362 10.71352 30717 ft 467 kts 54°
2026-05-07 20:06 50.86216 10.75577 30903 ft 469 kts 54°
2026-05-07 20:07 50.88078 10.79837 31058 ft 471 kts 54°
2026-05-07 20:07 50.89939 10.84108 31111 ft 472 kts 55°
2026-05-07 20:07 50.93627 10.92605 31114 ft 464 kts 54°
2026-05-07 20:08 50.97268 11.01022 31112 ft 462 kts 55°
2026-05-07 20:08 51.00900 11.09447 31112 ft 462 kts 55°
2026-05-07 20:09 51.04522 11.17881 31113 ft 462 kts 55°
2026-05-07 20:10 51.09943 11.30546 31091 ft 462 kts 55°
2026-05-07 20:10 51.13559 11.39009 31102 ft 462 kts 55°
2026-05-07 20:11 51.17171 11.47477 31104 ft 462 kts 55°
2026-05-07 20:11 51.20747 11.55917 31115 ft 462 kts 55°
2026-05-07 20:12 51.24332 11.64411 31124 ft 461 kts 54°
2026-05-07 20:12 51.28052 11.72735 31072 ft 459 kts 45°
2026-05-07 20:12 51.30362 11.76198 30371 ft 455 kts 40°
2026-05-07 20:13 51.32700 11.79498 29508 ft 440 kts 39°
2026-05-07 20:13 51.34986 11.82664 28243 ft 429 kts 39°
2026-05-07 20:13 51.37228 11.85740 26961 ft 420 kts 39°
2026-05-07 20:13 51.39421 11.88758 25743 ft 412 kts 39°
2026-05-07 20:14 51.41569 11.91732 24553 ft 404 kts 39°
2026-05-07 20:14 51.43673 11.94668 23413 ft 400 kts 40°
2026-05-07 20:14 51.45764 11.97600 22435 ft 398 kts 40°
2026-05-07 20:14 51.47841 12.00522 21993 ft 396 kts 40°
2026-05-07 20:15 51.49901 12.03426 21531 ft 394 kts 40°
2026-05-07 20:15 51.51952 12.06324 21064 ft 391 kts 40°
2026-05-07 20:15 51.53983 12.09201 20604 ft 388 kts 40°
2026-05-07 20:15 51.55976 12.12027 20052 ft 373 kts 40°
2026-05-07 20:16 51.57883 12.14733 19683 ft 364 kts 40°
2026-05-07 20:16 51.59778 12.17422 19278 ft 362 kts 40°
2026-05-07 20:16 51.61658 12.20091 18859 ft 359 kts 40°
2026-05-07 20:16 51.63522 12.22743 18427 ft 356 kts 40°
2026-05-07 20:17 51.65347 12.25344 17972 ft 354 kts 41°
2026-05-07 20:17 51.67183 12.27961 17540 ft 352 kts 41°
2026-05-07 20:17 51.69011 12.30564 17121 ft 350 kts 41°
2026-05-07 20:17 51.70828 12.33152 16701 ft 347 kts 41°
2026-05-07 20:18 51.72633 12.35722 16281 ft 345 kts 41°
2026-05-07 20:18 51.74425 12.38285 15870 ft 343 kts 41°
2026-05-07 20:18 51.76198 12.40833 15447 ft 341 kts 41°
2026-05-07 20:18 51.77963 12.43374 15052 ft 339 kts 41°
2026-05-07 20:19 51.79717 12.45893 14649 ft 337 kts 41°
2026-05-07 20:19 51.81466 12.48404 14242 ft 335 kts 41°
2026-05-07 20:19 51.83202 12.50896 13825 ft 333 kts 41°
2026-05-07 20:19 51.84927 12.53374 13408 ft 331 kts 41°
2026-05-07 20:20 51.86642 12.55842 13011 ft 329 kts 42°
2026-05-07 20:20 51.88347 12.58300 12612 ft 328 kts 42°
2026-05-07 20:20 51.90042 12.60749 12220 ft 326 kts 42°
2026-05-07 20:20 51.91726 12.63184 11828 ft 324 kts 42°
2026-05-07 20:21 51.93401 12.65609 11431 ft 322 kts 42°
2026-05-07 20:21 51.95033 12.67974 11191 ft 302 kts 42°
2026-05-07 20:21 51.96547 12.70166 10716 ft 285 kts 42°
2026-05-07 20:21 51.98002 12.72271 10366 ft 280 kts 42°
2026-05-07 20:22 51.99458 12.74385 10014 ft 281 kts 42°
2026-05-07 20:22 52.00912 12.76500 9643 ft 280 kts 43°
2026-05-07 20:22 52.02337 12.78576 9314 ft 280 kts 43°
2026-05-07 20:22 52.03800 12.80712 8955 ft 277 kts 43°
2026-05-07 20:23 52.05204 12.82762 8628 ft 274 kts 43°
2026-05-07 20:23 52.06616 12.84826 8291 ft 272 kts 42°
2026-05-07 20:23 52.08027 12.86885 7885 ft 273 kts 43°
2026-05-07 20:23 52.09433 12.88940 7525 ft 271 kts 43°
2026-05-07 20:24 52.10903 12.91090 7170 ft 294 kts 43°
2026-05-07 20:24 52.12434 12.93332 6804 ft 297 kts 43°
2026-05-07 20:24 52.13965 12.95575 6427 ft 295 kts 43°
2026-05-07 20:24 52.15485 12.97804 6062 ft 293 kts 43°
2026-05-07 20:25 52.16992 13.00013 5686 ft 291 kts 43°
2026-05-07 20:25 52.18493 13.02218 5323 ft 290 kts 43°
2026-05-07 20:25 52.19983 13.04414 4962 ft 287 kts 43°
2026-05-07 20:25 52.21436 13.06560 4749 ft 275 kts 43°
2026-05-07 20:26 52.22822 13.08609 4578 ft 263 kts 43°
2026-05-07 20:26 52.24147 13.10564 4462 ft 250 kts 43°
2026-05-07 20:26 52.25403 13.12418 4355 ft 238 kts 43°
2026-05-07 20:26 52.26554 13.14243 4254 ft 224 kts 53°
2026-05-07 20:27 52.27250 13.16414 4128 ft 210 kts 68°
2026-05-07 20:27 52.27773 13.18595 3890 ft 200 kts 68°
2026-05-07 20:27 52.28258 13.20614 3642 ft 182 kts 68°
2026-05-07 20:27 52.28704 13.22470 3405 ft 172 kts 69°
2026-05-07 20:28 52.29138 13.24271 3170 ft 169 kts 68°
2026-05-07 20:28 52.29565 13.26048 2941 ft 167 kts 68°
2026-05-07 20:28 52.29988 13.27809 2711 ft 166 kts 68°
2026-05-07 20:28 52.30406 13.29551 2489 ft 164 kts 68°
2026-05-07 20:29 52.30821 13.31281 2260 ft 164 kts 68°
2026-05-07 20:29 52.31235 13.32993 2098 ft 159 kts 68°
2026-05-07 20:29 52.31622 13.34625 1873 ft 147 kts 68°
2026-05-07 20:29 52.31977 13.36115 1602 ft 136 kts 68°
2026-05-07 20:30 52.32315 13.37534 1407 ft 132 kts 68°
2026-05-07 20:30 52.32649 13.38923 1248 ft 132 kts 67°
2026-05-07 20:30 52.32986 13.40323 1087 ft 132 kts 67°
2026-05-07 20:30 52.33325 13.41745 902 ft 137 kts 67°
2026-05-07 20:31 52.33672 13.43190 697 ft 137 kts 68°
2026-05-07 20:31 52.34021 13.44652 513 ft 140 kts 67°
2026-05-07 20:31 52.34374 13.46140 309 ft 141 kts 68°
2026-05-07 20:31 52.34725 13.47613 157 ft 131 kts 68°
2026-05-07 20:32 52.35004 13.48786 154 ft 87 kts 69°
2026-05-07 20:32 52.35184 13.49537 154 ft 66 kts 68°
2026-05-07 20:32 52.35401 13.50031 155 ft 42 kts 37°
2026-05-07 20:32 52.35505 13.50164 155 ft 9 kts 38°
2026-05-07 20:33 52.35556 13.50232 155 ft 10 kts 39°
2026-05-07 20:33 52.35604 13.50318 155 ft 11 kts 63°
2026-05-07 20:33 52.35633 13.50438 155 ft 12 kts 68°
2026-05-07 20:33 52.35664 13.50570 155 ft 13 kts 69°
2026-05-07 20:34 52.35718 13.50688 155 ft 14 kts 17°
2026-05-07 20:34 52.35810 13.50643 155 ft 15 kts 339°
2026-05-07 20:34 52.35893 13.50635 155 ft 11 kts 15°
2026-05-07 20:34 52.35972 13.50618 155 ft 12 kts 338°
2026-05-07 20:35 52.36053 13.50566 155 ft 13 kts 339°
2026-05-07 20:35 52.36140 13.50511 155 ft 14 kts 339°
2026-05-07 20:35 52.36228 13.50456 155 ft 12 kts 339°
2026-05-07 20:35 52.36291 13.50417 155 ft 9 kts 344°
2026-05-07 20:36 52.36348 13.50447 155 ft 8 kts 40°
2026-05-07 20:36 52.36371 13.50523 155 ft 7 kts 69°
2026-05-07 20:36 52.36385 13.50580 155 ft 2 kts 69°
2026-05-07 20:36 52.36388 13.50592 155 ft 1 kts 69°